Home > Time Zones > World Clock > Weather > Norway > Alta > Past weeks

Flag Weather past 2 weeks in Alta, Norway

Now
32 °F

Chilly.


Feels Like: 32 °F
Forecast: 29 / 36 °F
Wind: 2 mph from Southeast

Location: Alta Lufthavn

Current Time: Nov 26, 2014 at 6:31:26 PM

Latest Report: Nov 26, 2014 at 5:00 PM


Visibility: N/A

Pressure: 30.03 "Hg

Humidity: 88%

Dew point: 29 °F

Location of AltaLocation

Historic Weather in Alta — Graph

°F

Alta temperature yesterday

Maximum temperature yesterday: 36 °F (at 3:00 PM)
Minimum temperature yesterday: 19 °F (at 12:00 AM)
Average temperature yesterday: 31 °F

Past Weeks' High & Low Weather Summary

 TemperatureHumidityPressure
High47 °F (Nov 19, 11:00 AM)96% (Nov 22, 8:00 PM)30.55 "Hg (Nov 22, 8:00 PM)
Low13 °F (Nov 13, 7:00 AM)58% (Nov 14, 12:00 AM)29.81 "Hg (Nov 25, 7:00 PM)
Average26 °F81%30.21 "Hg
* Reported Nov 11 5:00 PM — Nov 26 5:00 PM, Alta, Weather by CustomWeather, © 2014

Note: Actual official high and low records may vary slightly from our data, if they occured in-between our weather recording intervals... More about our weather records

Advertising

Alta weather history for previous 24 hours

 ConditionsComfort  
Time TempWeatherWind HumidityBarometerVisibility
5:00 PM
Nov 26
32 °FChilly.2 mph88%30.03 "HgN/A
4:00 PM31 °FChilly.2 mph88%30.02 "HgN/A
3:00 PM29 °FChilly.1 mph85%30.01 "HgN/A
2:00 PM30 °FChilly.2 mph83%30.02 "HgN/A
1:00 PM29 °FChilly.2 mph84%30.00 "HgN/A
12:00 PM30 °FChilly.1 mph80%29.99 "HgN/A
11:00 AM31 °FChilly.1 mph80%29.97 "HgN/A
10:00 AM33 °FChilly.3 mph74%29.95 "HgN/A
9:00 AM31 °FChilly.2 mph80%29.93 "HgN/A
8:00 AM31 °FChilly.5 mph78%29.91 "HgN/A
7:00 AM34 °FChilly.3 mph73%29.90 "HgN/A
6:00 AM34 °FChilly.2 mph73%29.89 "HgN/A
5:00 AM34 °FChilly.5 mph71%29.88 "HgN/A
3:00 AM32 °FChilly.5 mph70%29.87 "HgN/A
2:00 AM32 °FChilly.5 mph74%29.88 "HgN/A
1:00 AM31 °FChilly.6 mph76%29.88 "HgN/A
12:00 AM31 °FChilly.2 mph78%29.86 "HgN/A
11:00 PM
Nov 25
31 °FChilly.5 mph77%29.86 "HgN/A
10:00 PM32 °FChilly.3 mph74%29.87 "HgN/A
9:00 PM33 °FChilly.2 mph74%29.85 "HgN/A
8:00 PM35 °FChilly.2 mph71%29.83 "HgN/A
7:00 PM35 °FChilly.6 mph71%29.81 "HgN/A
6:00 PM35 °FChilly.6 mph71%29.83 "HgN/A
Weather by CustomWeather, © 2014

See weather overviewHow to use our weather pages